Flag for U.S.A. Weather past 2 weeks in Post Falls, Idaho, U.S.A.

Now
36 °F

Clear.


Feels Like: 31 °F
Forecast: 28 / 40 °F
Wind: 6 mph from Southwest

Location: Coeur d'Alene Weather Reporting System

Current Time: Dec 22, 2014 at 4:50:40 PM

Latest Report: Dec 22, 2014 at 4:15 PM


Visibility: 10 mi

Pressure: 30.24 "Hg

Humidity: 70%

Dew point: 27 °F

Location of Post FallsLocation

Historic Weather in Post Falls — Graph

°F

Post Falls temperature yesterday

Maximum temperature yesterday: 48 °F (at 3:15 AM)
Minimum temperature yesterday: 37 °F (at 10:55 PM)
Average temperature yesterday: 43 °F

Past Weeks' High & Low Weather Summary

 TemperatureHumidityPressure
High55 °F (Dec 10, 8:55 PM)93% (Dec 7, 3:15 PM)30.27 "Hg (Dec 7, 3:15 PM)
Low27 °F (Dec 15, 7:15 AM)57% (Dec 22, 12:55 PM)29.43 "Hg (Dec 21, 1:35 AM)
Average39 °F84%29.93 "Hg
* Reported Dec 7 3:15 PM — Dec 22 3:35 PM, Post Falls, Weather by CustomWeather, © 2014

Note: Actual official high and low records may vary slightly from our data, if they occured in-between our weather recording intervals... More about our weather records

Advertising

Post Falls weather history for previous 24 hours

 ConditionsComfort  
Time TempWeatherWind HumidityBarometerVisibility
3:35 PM
Dec 22
41 °FSunny.8 mph61%30.21 "Hg10 mi
3:15 PM43 °FSunny.7 mph57%30.20 "Hg10 mi
2:55 PM45 °FSunny.9 mph57%30.20 "Hg10 mi
2:35 PM45 °FPassing clouds.10 mph57%30.19 "Hg10 mi
2:15 PM45 °FPassing clouds.15 mph57%30.18 "Hg10 mi
1:35 PM45 °FPassing clouds.10 mph57%30.16 "Hg10 mi
1:15 PM45 °FSunny.9 mph57%30.16 "Hg10 mi
12:55 PM45 °FSunny.10 mph57%30.15 "Hg10 mi
12:35 PM43 °FSunny.13 mph61%30.15 "Hg10 mi
12:15 PM43 °FSunny.12 mph61%30.15 "Hg10 mi
11:55 AM43 °FPassing clouds.13 mph61%30.15 "Hg10 mi
11:35 AM43 °FScattered clouds.13 mph61%30.15 "Hg10 mi
11:15 AM43 °FSunny.5 mph61%30.15 "Hg10 mi
10:55 AM41 °FSunny.8 mph66%30.14 "Hg10 mi
10:35 AM39 °FSunny.3 mph70%30.13 "Hg10 mi
9:55 AM37 °FPassing clouds.8 mph75%30.13 "Hg10 mi
9:35 AM37 °FPassing clouds.7 mph75%30.11 "Hg10 mi
9:15 AM36 °FSunny.10 mph81%30.09 "Hg10 mi
8:55 AM36 °FSunny.9 mph81%30.09 "Hg10 mi
8:35 AM34 °FSunny.6 mph81%30.08 "Hg10 mi
8:15 AM34 °FSunny.12 mph81%30.07 "Hg10 mi
7:55 AM34 °FSunny.13 mph87%30.06 "Hg10 mi
7:35 AM34 °FPassing clouds.5 mph81%30.06 "Hg10 mi
7:15 AM34 °FPartly cloudy.6 mph81%30.04 "Hg10 mi
6:55 AM34 °FOvercast.5 mph81%30.03 "Hg10 mi
6:35 AM34 °FOvercast.5 mph81%30.02 "Hg10 mi
6:15 AM34 °FMostly cloudy.6 mph81%30.01 "Hg10 mi
5:55 AM36 °FPassing clouds.3 mph75%30.01 "Hg10 mi
5:35 AM36 °FPassing clouds.No wind75%30.01 "Hg10 mi
5:15 AM36 °FClear.No wind75%30.01 "Hg10 mi
4:55 AM34 °FClear.No wind81%30.00 "Hg10 mi
4:35 AM36 °FClear.3 mph75%30.00 "Hg10 mi
4:15 AM36 °FClear.3 mph81%30.00 "Hg10 mi
3:55 AM36 °FClear.No wind75%29.99 "Hg10 mi
3:35 AM36 °FClear.3 mph81%29.99 "Hg10 mi
3:15 AM36 °FClear.6 mph81%29.98 "Hg10 mi
2:55 AM36 °FClear.7 mph81%29.98 "Hg10 mi
2:35 AM36 °FClear.5 mph81%29.98 "Hg10 mi
2:15 AM36 °FClear.3 mph81%29.98 "Hg10 mi
1:55 AM36 °FClear.6 mph81%29.98 "Hg10 mi
1:35 AM37 °FPassing clouds.No wind87%29.97 "Hg10 mi
1:15 AM37 °FPassing clouds.5 mph81%29.96 "Hg10 mi
12:55 AM37 °FClear.5 mph81%29.96 "Hg10 mi
12:35 AM37 °FClear.8 mph81%29.95 "Hg10 mi
12:15 AM37 °FClear.9 mph87%29.95 "Hg10 mi
11:55 PM
Dec 21
37 °FClear.7 mph87%29.94 "Hg10 mi
11:35 PM37 °FClear.7 mph81%29.95 "Hg10 mi
11:15 PM37 °FClear.6 mph81%29.94 "Hg10 mi
10:55 PM37 °FClear.6 mph81%29.93 "Hg10 mi
10:35 PM39 °FClear.6 mph81%29.93 "Hg10 mi
10:15 PM39 °FClear.9 mph81%29.92 "Hg10 mi
9:55 PM39 °FClear.9 mph81%29.92 "Hg10 mi
9:35 PM39 °FClear.9 mph81%29.91 "Hg10 mi
9:15 PM39 °FClear.9 mph81%29.91 "Hg10 mi
8:55 PM41 °FClear.12 mph76%29.90 "Hg10 mi
8:35 PM41 °FClear.10 mph81%29.90 "Hg10 mi
7:55 PM39 °FClear.9 mph81%29.89 "Hg10 mi
7:35 PM41 °FClear.7 mph76%29.91 "Hg10 mi
7:15 PM43 °FClear.8 mph76%29.90 "Hg10 mi
6:55 PM39 °FClear.6 mph81%29.89 "Hg10 mi
6:35 PM41 °FClear.6 mph76%29.88 "Hg10 mi
6:15 PM41 °FPassing clouds.8 mph81%29.88 "Hg10 mi
5:55 PM43 °FPassing clouds.9 mph76%29.88 "Hg10 mi
5:35 PM45 °FOvercast.14 mph71%29.88 "Hg10 mi
5:15 PM43 °FOvercast.8 mph76%29.86 "Hg10 mi
4:55 PM45 °FOvercast.13 mph76%29.87 "Hg10 mi
4:35 PM43 °FOvercast.10 mph76%29.86 "Hg10 mi
4:15 PM43 °FPassing clouds.6 mph76%29.85 "Hg10 mi
Weather by CustomWeather, © 2014

See weather overviewHow to use our weather pages